Volver al catálogo

STARLINK-37917

ActivoComunicacionesVLEO
NORAD 100034·PAYLOAD·🇺🇸 United States

Lanzado Jul 14, 2026 desde Cape Canaveral Space Force Station

Loading…

Próximos Pases (próximas 24 horas)

TLE

ActualizadoSource: Space-Track

Época: Sep 14, 2026, 08:47 UTC

1 A0034U 26161G   26257.36597756  .00020264  00000-0  60937-3 0  9995
2 A0034  53.1622  26.0501 0001026  90.4744 269.6376 15.34393462  9670

Sigue STARLINK-37917 en tiempo real con AllMySat

Download on the App Store